Tracking 27107 objects as of 20-Mar-2023
HD Live streaming from Space Station
objects crossing your sky now

SL-16 R/B DEB

Track SL-16 R/B DEB now!
10-day predictions


NORAD ID: 39721
Int'l Code: 1992-093KM
Perigee: 826.3 km
Apogee: 1,013.1 km
Inclination: 71.2 °
Period: 103.3 minutes
Semi major axis: 7290 km
RCS: Unknown
Launch date: December 25, 1992
Source: Commonwealth of Independent States (former USSR) (CIS)
Launch site: TYURATAM MISSILE AND SPACE COMPLEX (TTMTR)

Note: This is SATELLITE DEBRIS
Your satellite tracking list
Your tracking list is empty




NASA's NSSDC Master Catalog

Two Line Element Set (TLE):
1 39721U 92093KM  23071.74564901  .00000682  00000-0  50696-3 0  9999
2 39721  71.1891 102.5578 0128106 163.2733 197.2667 13.94585556 11654
Source of the keplerian elements: AFSPC